DMSP 5D-2 F13 DEB, 42323

Orbit data source: Space-Track

DMSP 5D-2 F13 DEB, 42323 is space debris in SSO originally from a launch on Fri, 24 Mar 1995 UTC launched from the Air Force Western Test Range (AFWTR). Debris objects in space refer to the collection of defunct objects orbiting the Earth. Examples of debris include non-operational satellites, rocket bodies, and fragments generated from explosions, collisions, or faulty payload assembly.

Loading next visibility...
Identifier
42323, 1995-015JR
Orbit
SSO
Country
Flag of USUS
Related business
Manufacturer
Unknown
Mission
Spacecraft
Bus & Motor
Unknown
Mass
Unknown
Launch date (UTC)
1995-03-24 (31 years ago)
Launch vehicle
Unknown
Launch site
Air Force Western Test Range (AFWTR)
Object type
Payload
Rocket body
Debris
Shape & HBR
Unknown shape, 0.1 m
Radar Cross Section
Small (<0.1 m²)

Expand to show TLE details & history
Last TLE update: 12 hours ago

TLE from 12 hours ago
0 DMSP 5D-2 F13 DEB
1 42323U 95015JR  26119.01982932  .00000416  00000-0  22643-3 0  9998
2 42323  98.8236 134.9389 0003522 142.5601 217.5820 14.17598057545725
Epoch: 2026-04-29T00:28Z
TLE epoch observation values (Epoch: 2026-04-29T00:28:33.253Z)
Latitude
0.00003°
Longitude
-89.18645°
Altitude
838.409 km
Speed
7.433 km/s
True Right ascension
08h 59m 45s
True Declination
0° 00' 00"
Sunlit
Object was in daylight at epoch
Visualization orbit readout
Latitude
Unknown
Longitude
Unknown
Altitude
Unknown
Speed
Unknown
Apparent Right ascension
Unknown
Apparent Declination
Unknown
Sunlit
N/A
Visualization observer readout
Local Sidereal Time
20:00:49
Azimuth
Unknown
Elevation
Unknown
Doppler factor
Unknown
Orbital elements
Apogee altitude
833.194 km
Perigee altitude
828.116 km
Semi-major axis
7,208.792 km
Eccentricity
0.00035
Inclination
98.8236°
RAAN
134.9389°
Arg. of periapsis
142.5601°
True anomaly
217.55739°
Mean anomaly
217.582°
Eccentric anomaly
217.5697°
Mean motion
3.54609 °/min
Orbital period
101.52 mins
BSTAR
0.00022643

Documentation

Showing up to 5 results
|